Regional Weather Roundup
Issued by NWS Albany, NY

Home | Current Version | Previous Version | Graphics & Text | Print | Product List | Glossary Off
Versions: 1 2 3 4 5 6 7 8 9 10 11 12 13 14 15 16 17 18 19 20 21 22 23 24 25 26 27 28 29 30 31 32 33 34 35 36 37 38 39 40 41 42 43 44 45 46 47 48 49 50

146
ASUS41 KALY 180610
RWRALY

NEW YORK STATE HOURLY WEATHER ROUNDUP
NATIONAL WEATHER SERVICE ALBANY NY
100 AM EST SAT NOV 18 2017

NOTE: "FAIR" INDICATES FEW OR NO CLOUDS BELOW 12,000 FEET WITH NO
SIGNIFICANT WEATHER AND/OR NO OBSTRUCTIONS TO VISIBILITY.

NYZ032-033-038>043-046>054-057>066-NYZ062>081-082-084-180700-
EAST


CITY           SKY/WX    TMP DP  RH WIND       PRES   REMARKS
ALBANY         CLOUDY    25  18  74 NE3       30.04F
GLENS FALLS    CLOUDY    18  16  92 W3        30.04S
POUGHKEEPSIE   CLOUDY    24  18  77 CALM      30.05F
NEWBURGH       CLEAR     25  21  86 CALM      30.05F
MONTGOMERY     PTCLDY    25  20  81 CALM      30.04F
WHITE PLAINS   PTCLDY    29  20  69 CALM      30.03S
ISLIP          CLEAR     31  21  66 CALM      30.05S
NEW YORK CITY  PTCLDY    40  17  39 NW9       30.04F WCI  34
CENTRAL PARK   CLOUDY    37  17  44 W5        30.07F WCI  33
$$

NYZ005>009-017-018-044>046-055-056-180700-
CENTRAL


CITY           SKY/WX    TMP DP  RH WIND       PRES   REMARKS
FULTON         PTCLDY    28  23  81 E3        29.95F
SYRACUSE       PTCLDY    25  21  85 E6        29.96F WCI  18
ROME           CLOUDY    24  20  84 E5        30.01F WCI  18
ELMIRA         CLOUDY    29  26  89 CALM      29.94F
BINGHAMTON     CLOUDY    26  17  68 S7        29.93F WCI  18
MONTICELLO     CLOUDY    24  18  77 CALM      29.99F
$$

NYZ026>034-041>043-087-180700-
NORTH


CITY           SKY/WX    TMP DP  RH WIND       PRES   REMARKS
WATERTOWN      CLOUDY    27  23  85 E3        29.96F
FORT DRUM      NOT AVBL
OGDENSBURG     FAIR      23  21  91 S3        29.97F
MASSENA        CLOUDY    18  16  92 CALM      30.01F
SARANAC LAKE   CLOUDY     9   7  92 CALM      29.92F
PLATTSBURGH    CLEAR     20  14  77 CALM      30.01F
$$

NYZ001>004-010>016-019>021-085-180700-
WEST


CITY           SKY/WX    TMP DP  RH WIND       PRES   REMARKS
NIAGARA FALLS  CLOUDY    33  25  72 E7        29.81F WCI  27
BUFFALO        CLOUDY    34  26  72 SE3       29.82F
DUNKIRK        CLOUDY    39  26  59 W9        29.80F WCI  33
JAMESTOWN      CLOUDY    33  25  72 S8        29.82F WCI  26
WELLSVILLE     CLEAR     37  19  48 S6        29.87F WCI  32
ROCHESTER      CLOUDY    33  27  78 SE7       29.86F WCI  27
PENN YAN       CLOUDY    35  22  58 S9        29.90F WCI  28
$$

             KEY
       WCI = WIND CHILL INDEX
       VSB = VISIBILITY
       HX  = HEAT INDEX
$$




USA.gov is the U.S. government's official web portal to all federal, state and local government web resources and services.